YAOGAN-36 04C

导读

YAOGAN-36 04C(遥感三十六号04组C星)是中国研制的遥感卫星,由上海航天技术研究院抓总研制,隶属于中国遥感卫星系列。 该卫星于北京时间2022年12月14日,在西昌卫星发射中心通过长征二号丁运载火箭发射升空,随后顺利进入预定轨道,此次发射是长征系列运载火箭的第455次飞行任务,主要用于开展对地遥感观测等相关应用。

Basic Information
目录编号:
54750
目录名称:
YAOGAN-36 04C
国际标识:
2022-171E
轨道中心:
EARTH
卫星名称:
YAOGAN-36 04C
卫星全名:
--
卫星状态:
在轨 (已飞行1281 天)
发射日期:
2022-12-14 UTC
国别 :
中国 (CN)
星等 :
--
Orbit Information
数据来源 国际轨道数据 AOE轨道数据
星历时间 2026-06-17T13:11:29+0800
4小时前
查看轨道信息
2026-06-14T02:00:00+0800
3天前
查看轨道信息
半长轴 6846.475km 6846.623km
偏心率 0.0005367 0.0004966
轨道倾角 34.979° 34.980°
近地点辐角 139.615° 102.392°
升交点赤经 183.301° 205.422°
平近点角 220.497° 182.506°
近地点 464.663km 465.085km
远地点 472.013km 471.887km
周期 93.964分钟 93.967分钟
每日圈数 15.325064 15.324566
Detailed Information
使用方式:
暂无
2D Orbit Map
3D Orbit Map
Orbit Altitude Analysis Chart
Orbit Inclination Analysis Chart
Orbit Comprehensive Analysis Chart
View Comprehensive Chart